TimeCST,TemperatureF,Dew PointF,Humidity,Sea Level PressureIn,VisibilityMPH,Wind Direction,Wind SpeedMPH,Gust SpeedMPH,PrecipitationIn,Events,Conditions,WindDirDegrees,DateUTC
12:53 AM,35.1,26.1,70,30.19,10.0,SE,4.6,-,N/A,,Clear,140,2013-01-07 06:53:00
1:53 AM,32.0,26.1,79,30.16,10.0,Calm,Calm,-,N/A,,Clear,0,2013-01-07 07:53:00
2:53 AM,34.0,25.0,70,30.15,10.0,SE,4.6,-,N/A,,Clear,140,2013-01-07 08:53:00
3:53 AM,35.1,25.0,67,30.11,10.0,SE,6.9,-,N/A,,Clear,130,2013-01-07 09:53:00
4:53 AM,36.0,25.0,64,30.09,10.0,ESE,8.1,-,N/A,,Clear,120,2013-01-07 10:53:00
5:53 AM,37.9,24.1,57,30.08,10.0,SE,9.2,-,N/A,,Clear,140,2013-01-07 11:53:00
6:53 AM,35.1,25.0,67,30.10,10.0,SE,6.9,-,N/A,,Clear,140,2013-01-07 12:53:00
7:53 AM,37.9,25.0,60,30.10,10.0,SE,8.1,-,N/A,,Clear,140,2013-01-07 13:53:00
9:53 AM,39.0,27.0,62,30.09,10.0,SSE,17.3,-,N/A,,Clear,150,2013-01-07 15:53:00
10:53 AM,42.1,28.9,60,30.06,10.0,SSE,18.4,26.5,N/A,,Clear,150,2013-01-07 16:53:00
11:53 AM,46.0,30.0,54,30.05,10.0,South,19.6,24.2,N/A,,Clear,170,2013-01-07 17:53:00
1:53 PM,48.9,28.9,46,29.94,10.0,SSE,18.4,23.0,N/A,,Clear,150,2013-01-07 19:53:00
2:53 PM,50.0,30.0,46,29.93,10.0,SE,12.7,-,N/A,,Clear,130,2013-01-07 20:53:00
3:53 PM,48.0,32.0,54,29.92,10.0,SSE,18.4,24.2,N/A,,Clear,150,2013-01-07 21:53:00
4:53 PM,48.0,32.0,54,29.91,10.0,SE,17.3,26.5,N/A,,Clear,140,2013-01-07 22:53:00
5:53 PM,46.0,33.1,61,29.90,10.0,SE,16.1,24.2,N/A,,Clear,130,2013-01-07 23:53:00
6:53 PM,44.1,32.0,63,29.93,10.0,ESE,16.1,-,N/A,,Clear,110,2013-01-08 00:53:00
7:53 PM,42.1,32.0,67,29.94,10.0,SE,12.7,21.9,N/A,,Clear,140,2013-01-08 01:53:00
8:53 PM,39.9,32.0,73,29.93,10.0,SE,10.4,-,N/A,,Clear,130,2013-01-08 02:53:00
9:53 PM,39.0,32.0,76,29.94,10.0,SE,12.7,-,N/A,,Clear,140,2013-01-08 03:53:00
10:51 PM,37.4,33.8,87,29.96,10.0,SE,6.9,-,N/A,,Mostly Cloudy,140,2013-01-08 04:51:00
10:53 PM,37.9,33.1,83,29.92,10.0,SE,5.8,-,N/A,,Mostly Cloudy,130,2013-01-08 04:53:00
11:53 PM,39.9,34.0,79,29.89,10.0,SE,9.2,-,N/A,,Overcast,140,2013-01-08 05:53:00